TimeMST,TemperatureF,Dew PointF,Humidity,Sea Level PressureIn,VisibilityMPH,Wind Direction,Wind SpeedMPH,Gust SpeedMPH,PrecipitationIn,Events,Conditions,WindDirDegrees,DateUTC
12:52 AM,-17.0,-20.9,82,30.53,10.0,WNW,4.6,-,N/A,,Clear,290,2012-12-29 07:52:00
1:52 AM,-20.0,-25.1,78,30.55,10.0,WSW,5.8,-,N/A,,Clear,250,2012-12-29 08:52:00
2:52 AM,-20.9,-27.0,73,30.57,10.0,SW,8.1,-,N/A,,Clear,230,2012-12-29 09:52:00
3:52 AM,-18.0,-24.0,74,30.58,10.0,NE,5.8,-,N/A,,Clear,40,2012-12-29 10:52:00
4:52 AM,-20.9,-26.0,77,30.67,10.0,SSE,5.8,-,N/A,,Clear,160,2012-12-29 11:52:00
5:52 AM,-16.1,-20.9,79,30.66,10.0,Calm,Calm,-,N/A,,Clear,0,2012-12-29 12:52:00
6:52 AM,-24.0,-29.0,77,30.80,10.0,WSW,3.5,-,N/A,,Clear,250,2012-12-29 13:52:00
7:52 AM,-20.9,-25.1,81,30.84,10.0,Calm,Calm,-,N/A,,Clear,0,2012-12-29 14:52:00
8:52 AM,-8.0,-13.0,79,30.80,10.0,Calm,Calm,-,N/A,,Clear,0,2012-12-29 15:52:00
9:52 AM,-0.0,-8.0,69,30.75,10.0,NW,4.6,-,N/A,,Clear,320,2012-12-29 16:52:00
10:52 AM,9.0,-2.9,59,30.65,10.0,Variable,3.5,-,N/A,,Clear,0,2012-12-29 17:52:00
11:52 AM,12.9,-2.0,51,30.61,10.0,NNW,4.6,-,N/A,,Clear,340,2012-12-29 18:52:00
12:52 PM,14.0,-2.0,49,30.57,10.0,Calm,Calm,-,N/A,,Clear,0,2012-12-29 19:52:00
1:52 PM,17.1,-0.0,47,30.54,10.0,Variable,3.5,-,N/A,,Clear,0,2012-12-29 20:52:00
2:52 PM,16.0,-0.0,49,30.54,10.0,West,5.8,-,N/A,,Clear,270,2012-12-29 21:52:00
3:52 PM,10.9,-0.0,61,30.53,10.0,West,4.6,-,N/A,,Clear,280,2012-12-29 22:52:00
4:52 PM,3.9,-4.0,70,30.58,10.0,NW,6.9,-,N/A,,Clear,310,2012-12-29 23:52:00
5:52 PM,-0.4,-7.6,72,30.11,10.0,NW,4.6,-,N/A,,Clear,310,2012-12-30 00:52:00
6:52 PM,-9.0,-14.1,79,30.69,10.0,SE,6.9,-,N/A,,Clear,130,2012-12-30 01:52:00
7:52 PM,-8.0,-11.9,83,30.67,10.0,SSE,4.6,-,N/A,,Clear,150,2012-12-30 02:52:00
8:52 PM,-8.0,-11.9,83,30.58,10.0,North,4.6,-,N/A,,Clear,10,2012-12-30 03:52:00
9:52 PM,-9.9,-13.0,86,30.53,7.0,NE,4.6,-,N/A,,Clear,40,2012-12-30 04:52:00
10:52 PM,-14.1,-17.0,87,30.51,9.0,WNW,5.8,-,N/A,,Clear,290,2012-12-30 05:52:00
11:52 PM,-14.1,-18.9,79,30.46,10.0,WNW,4.6,-,N/A,,Clear,290,2012-12-30 06:52:00